TIME,�g�[�{�C���[-���� [L],�t���O,�����{�C���[-���� [L],�t���O,�g�[�{�C���[-���� [MJ/h],�t���O,�����{�C���[-���� [MJ/h],�t���O
2003/2/1 0:00,0.129604986,0,0.110768011,0,19.026012,0,16.260744,0
2003/2/1 0:15,0.12976594,0,0.064561063,0,19.04964,0,9.477564,0
2003/2/1 0:30,0.129604986,0,0,0,19.026012,0,0,0
2003/2/1 0:45,0.129926975,0,0,0,19.07328,0,0,0
2003/2/1 1:00,0.130087929,0,0.319263025,0,19.096908,0,46.867812,0
2003/2/1 1:15,0.130248965,0,0,0,19.120548,0,0,0
2003/2/1 1:30,0.130248965,0,0,0,19.120548,0,0,0
2003/2/1 1:45,0.130248965,0,0,0,19.120548,0,0,0
2003/2/1 2:00,0.130248965,0,0.05586703,0,19.120548,0,8.20128,0
2003/2/1 2:15,0.130248965,0,0,0,19.120548,0,0,0
2003/2/1 2:30,0.130248965,0,0,0,19.120548,0,0,0
2003/2/1 2:45,0.130087929,0,0,0,19.096908,0,0,0
2003/2/1 3:00,0.130248965,0,0,0,19.120548,0,0,0
2003/2/1 3:15,0.130248965,0,0,0,19.120548,0,0,0
2003/2/1 3:30,0.130248965,0,0,0,19.120548,0,0,0
2003/2/1 3:45,0.13041,0,0,0,19.144188,0,0,0
2003/2/1 4:00,0.130248965,0,0,0,19.120548,0,0,0
2003/2/1 4:15,0.130248965,0,0,0,19.120548,0,0,0
2003/2/1 4:30,0.130248965,0,0,0,19.120548,0,0,0
2003/2/1 4:45,0.130248965,0,0,0,19.120548,0,0,0
2003/2/1 5:00,0.130087929,0,0.015617003,0,19.096908,0,2.292576,0
2003/2/1 5:15,0.130248965,0,0,0,19.120548,0,0,0
2003/2/1 5:30,0.130087929,0,0,0,19.096908,0,0,0
2003/2/1 5:45,0.13041,0,0,0,19.144188,0,0,0
2003/2/1 6:00,0.130248965,0,0,0,19.120548,0,0,0
2003/2/1 6:15,0.130087929,0,0,0,19.096908,0,0,0
2003/2/1 6:30,0.130087929,0,0,0,19.096908,0,0,0
2003/2/1 6:45,0.130248965,0,0,0,19.120548,0,0,0
2003/2/1 7:00,0.130248965,0,0,0,19.120548,0,0,0
2003/2/1 7:15,0.130087929,0,0,0,19.096908,0,0,0
2003/2/1 7:30,0.129926975,0,0.02898,0,19.07328,0,4.254264,0
2003/2/1 7:45,0.129926894,0,0,0,19.073268,0,0,0
2003/2/1 8:00,0.129604905,0,0,0,19.026,0,0,0
2003/2/1 8:15,0.129604986,0,0,0,19.026012,0,0,0
2003/2/1 8:30,0.129444033,0,0,0,19.002384,0,0,0
2003/2/1 8:45,0.129282997,0,0.057477057,0,18.978744,0,8.437632,0
2003/2/1 9:00,0.129604986,0,0.055705995,0,19.026012,0,8.17764,0
2003/2/1 9:15,0.129444033,0,0.042504033,0,19.002384,0,6.239592,0
2003/2/1 9:30,0.129604986,0,0.126385014,0,19.026012,0,18.55332,0
2003/2/1 9:45,0.129444033,0,0.088227956,0,19.002384,0,12.951864,0
2003/2/1 10:00,0.129444033,0,0,0,19.002384,0,0,0
2003/2/1 10:15,0.129444033,0,0,0,19.002384,0,0,0
2003/2/1 10:30,0.129282997,0,0,0,18.978744,0,0,0
2003/2/1 10:45,0.129121962,0,0,0,18.955104,0,0,0
2003/2/1 11:00,0.129282997,0,0,0,18.978744,0,0,0
2003/2/1 11:15,0.129282997,0,0,0,18.978744,0,0,0
2003/2/1 11:30,0.129282997,0,0,0,18.978744,0,0,0
2003/2/1 11:45,0.129121962,0,0,0,18.955104,0,0,0
2003/2/1 12:00,0.129121962,0,0,0,18.955104,0,0,0
2003/2/1 12:15,0.128960926,0,0.01449,0,18.931464,0,2.127132,0
2003/2/1 12:30,0.129121962,0,0,0,18.955104,0,0,0
2003/2/1 12:45,0.129604986,0,0,0,19.026012,0,0,0
2003/2/1 13:00,0.129444033,0,0,0,19.002384,0,0,0
2003/2/1 13:15,0.129444033,0,0,0,19.002384,0,0,0
2003/2/1 13:30,0.129121962,0,0,0,18.955104,0,0,0
2003/2/1 13:45,0.129121962,0,0,0,18.955104,0,0,0
2003/2/1 14:00,0.129121962,0,0,0,18.955104,0,0,0
2003/2/1 14:15,0.129121962,0,0,0,18.955104,0,0,0
2003/2/1 14:30,0.129121962,0,0,0,18.955104,0,0,0
2003/2/1 14:45,0.129121962,0,0.015778038,0,18.955104,0,2.316216,0
2003/2/1 15:00,0.129121962,0,0,0,18.955104,0,0,0
2003/2/1 15:15,0.128960926,0,0,0,18.931464,0,0,0
2003/2/1 15:30,0.129121962,0,0,0,18.955104,0,0,0
2003/2/1 15:45,0.129121962,0,0,0,18.955104,0,0,0
2003/2/1 16:00,0.129121962,0,0,0,18.955104,0,0,0
2003/2/1 16:15,0.129121962,0,0,0,18.955104,0,0,0
2003/2/1 16:30,0.129121962,0,0,0,18.955104,0,0,0
2003/2/1 16:45,0.129121962,0,0.021735041,0,18.955104,0,3.190704,0
2003/2/1 17:00,0.129444033,0,0.005473978,0,19.002384,0,0.80358,0
2003/2/1 17:15,0.129444033,0,0.000321989,0,19.002384,0,0.047268,0
2003/2/1 17:30,0.129604986,0,0.008854986,0,19.026012,0,1.299912,0
2003/2/1 17:45,0.088388992,0,0.006278992,0,12.975504,0,0.921756,0
2003/2/1 18:00,0.114954033,0,0,0,16.875252,0,0,0
2003/2/1 18:15,0.111573025,0,0.015938992,0,16.37892,0,2.339844,0
2003/2/1 18:30,0.12976594,0,0,0,19.04964,0,0,0
2003/2/1 18:45,0.129604986,0,0,0,19.026012,0,0,0
2003/2/1 19:00,0.111572943,0,0.357098011,0,16.378908,0,52.421988,0
2003/2/1 19:15,0.12976594,0,0.738668011,0,19.04964,0,108.436464,0
2003/2/1 19:30,0.105776894,0,0.081948965,0,15.528048,0,12.030108,0
2003/2/1 19:45,0.067137057,0,0.070034959,0,9.85572,0,10.281132,0
2003/2/1 20:00,0.118978937,0,0.086296022,0,17.466108,0,12.668256,0
2003/2/1 20:15,0.079695041,0,0.064400027,0,11.699232,0,9.453924,0
2003/2/1 20:30,0.075508937,0,0.022540054,0,11.084712,0,3.30888,0
2003/2/1 20:45,0.123486948,0,0,0,18.127884,0,0,0
2003/2/1 21:00,0.130087929,0,0.042504033,0,19.096908,0,6.239592,0
2003/2/1 21:15,0.130087929,0,0.221858011,0,19.096908,0,32.568756,0
2003/2/1 21:30,0.130087929,0,0,0,19.096908,0,0,0
2003/2/1 21:45,0.130087929,0,0.02141297,0,19.096908,0,3.143424,0
2003/2/1 22:00,0.130248965,0,0.021735041,0,19.120548,0,3.190704,0
2003/2/1 22:15,0.130087929,0,0.052646975,0,19.096908,0,7.728576,0
2003/2/1 22:30,0.13041,0,0.065849019,0,19.144188,0,9.666636,0
2003/2/1 22:45,0.130248965,0,0,0,19.120548,0,0,0
2003/2/1 23:00,0.130248965,0,0,0,19.120548,0,0,0
2003/2/1 23:15,0.13041,0,0.04894406,0,19.144188,0,7.184988,0
2003/2/1 23:30,0.130087929,0,0,0,19.096908,0,0,0
2003/2/1 23:45,0.130087929,0,0.027369973,0,19.096908,0,4.017912,0
2003/2/2 0:00,0.130087929,0,0.091608965,0,19.096908,0,13.448196,0
2003/2/2 0:15,0.130087929,0,0.107708992,0,19.096908,0,15.81168,0
2003/2/2 0:30,0.130248965,0,0.261303025,0,19.120548,0,38.359284,0
2003/2/2 0:45,0.130571035,0,0.396865014,0,19.167828,0,58.259784,0
2003/2/2 1:00,0.130571035,0,0,0,19.167828,0,0,0
2003/2/2 1:15,0.13041,0,0,0,19.144188,0,0,0
2003/2/2 1:30,0.13041,0,0,0,19.144188,0,0,0
2003/2/2 1:45,0.130571035,0,0,0,19.167828,0,0,0
2003/2/2 2:00,0.13041,0,0,0,19.144188,0,0,0
2003/2/2 2:15,0.13041,0,0,0,19.144188,0,0,0
2003/2/2 2:30,0.13041,0,0,0,19.144188,0,0,0
2003/2/2 2:45,0.130732071,0,0,0,19.191468,0,0,0
2003/2/2 3:00,0.130732071,0,0,0,19.191468,0,0,0
2003/2/2 3:15,0.130732071,0,0,0,19.191468,0,0,0
2003/2/2 3:30,0.130571035,0,0,0,19.167828,0,0,0
2003/2/2 3:45,0.130732071,0,0,0,19.191468,0,0,0
2003/2/2 4:00,0.130732071,0,0,0,19.191468,0,0,0
2003/2/2 4:15,0.130571035,0,0,0,19.167828,0,0,0
2003/2/2 4:30,0.130732071,0,0,0,19.191468,0,0,0
2003/2/2 4:45,0.130571035,0,0,0,19.167828,0,0,0
2003/2/2 5:00,0.130893106,0,0,0,19.215108,0,0,0
2003/2/2 5:15,0.130732071,0,0,0,19.191468,0,0,0
2003/2/2 5:30,0.130732071,0,0,0,19.191468,0,0,0
2003/2/2 5:45,0.130732071,0,0,0,19.191468,0,0,0
2003/2/2 6:00,0.130732071,0,0,0,19.191468,0,0,0
2003/2/2 6:15,0.130732071,0,0,0,19.191468,0,0,0
2003/2/2 6:30,0.130732071,0,0,0,19.191468,0,0,0
2003/2/2 6:45,0.130732071,0,0,0,19.191468,0,0,0
2003/2/2 7:00,0.130893106,0,0,0,19.215108,0,0,0
2003/2/2 7:15,0.130893106,0,0.005635014,0,19.215108,0,0.82722,0
2003/2/2 7:30,0.130893106,0,0,0,19.215108,0,0,0
2003/2/2 7:45,0.130893106,0,0,0,19.215108,0,0,0
2003/2/2 8:00,0.130571035,0,0,0,19.167828,0,0,0
2003/2/2 8:15,0.130571035,0,0,0,19.167828,0,0,0
2003/2/2 8:30,0.13041,0,0,0,19.144188,0,0,0
2003/2/2 8:45,0.130087929,0,0.015617003,0,19.096908,0,2.292576,0
2003/2/2 9:00,0.129604986,0,0,0,19.026012,0,0,0
2003/2/2 9:15,0.129444033,0,0,0,19.002384,0,0,0
2003/2/2 9:30,0.129282997,0,0,0,18.978744,0,0,0
2003/2/2 9:45,0.115114986,0,0,0,16.89888,0,0,0
2003/2/2 10:00,0.081304986,0,0,0,11.935572,0,0,0
2003/2/2 10:15,0.089999019,0,0,0,13.211856,0,0,0
2003/2/2 10:30,0.066976022,0,0,0,9.83208,0,0,0
2003/2/2 10:45,0.069390981,0,0,0,10.186596,0,0,0
2003/2/2 11:00,0.093057956,0,0,0,13.660908,0,0,0
2003/2/2 11:15,0.093058038,0,0,0,13.66092,0,0,0
2003/2/2 11:30,0.075669973,0,0,0,11.108352,0,0,0
2003/2/2 11:45,0.067297929,0,0,0,9.879336,0,0,0
2003/2/2 12:00,0.084685995,0,0,0,12.431904,0,0,0
2003/2/2 12:15,0.08758406,0,0,0,12.85734,0,0,0
2003/2/2 12:30,0.107708992,0,0,0,15.81168,0,0,0
2003/2/2 12:45,0.085812997,0,0,0,12.597348,0,0,0
2003/2/2 13:00,0.099819973,0,0,0,14.653572,0,0,0
2003/2/2 13:15,0.092897003,0,0,0,13.63728,0,0,0
2003/2/2 13:30,0.060214005,0,0,0,8.839416,0,0,0
2003/2/2 13:45,0.097083025,0,0.018192997,0,14.251788,0,2.670732,0
2003/2/2 14:00,0.111250954,0,0,0,16.33164,0,0,0
2003/2/2 14:15,0.069713052,0,0,0,10.233876,0,0,0
2003/2/2 14:30,0.08903297,0,0,0,13.07004,0,0,0
2003/2/2 14:45,0.129121962,0,0.024633025,0,18.955104,0,3.616128,0
2003/2/2 15:00,0.060535995,0,0,0,8.886684,0,0,0
2003/2/2 15:15,0.087745014,0,0,0,12.880968,0,0,0
2003/2/2 15:30,0.120911035,0,0,0,17.74974,0,0,0
2003/2/2 15:45,0.085007984,0,0,0,12.479172,0,0,0
2003/2/2 16:00,0.129121962,0,0,0,18.955104,0,0,0
2003/2/2 16:15,0.104005913,0,0,0,15.268068,0,0,0
2003/2/2 16:30,0.105776975,0,0,0,15.52806,0,0,0
2003/2/2 16:45,0.098209946,0,0,0,14.41722,0,0,0
2003/2/2 17:00,0.129282997,0,0,0,18.978744,0,0,0
2003/2/2 17:15,0.128960926,0,0.009821035,0,18.931464,0,1.441728,0
2003/2/2 17:30,0.128960926,0,0,0,18.931464,0,0,0
2003/2/2 17:45,0.112055967,0,0,0,16.449816,0,0,0
2003/2/2 18:00,0.129121962,0,0,0,18.955104,0,0,0
2003/2/2 18:15,0.129121962,0,0,0,18.955104,0,0,0
2003/2/2 18:30,0.129444033,0,0,0,19.002384,0,0,0
2003/2/2 18:45,0.129604986,0,0.015938992,0,19.026012,0,2.339844,0
2003/2/2 19:00,0.129926894,0,0,0,19.073268,0,0,0
2003/2/2 19:15,0.12976594,0,0,0,19.04964,0,0,0
2003/2/2 19:30,0.129926894,0,0,0,19.073268,0,0,0
2003/2/2 19:45,0.129926894,0,0,0,19.073268,0,0,0
2003/2/2 20:00,0.130087929,0,0.015938992,0,19.096908,0,2.339844,0
2003/2/2 20:15,0.129926894,0,0,0,19.073268,0,0,0
2003/2/2 20:30,0.130087929,0,0,0,19.096908,0,0,0
2003/2/2 20:45,0.130248965,0,0,0,19.120548,0,0,0
2003/2/2 21:00,0.130248965,0,0,0,19.120548,0,0,0
2003/2/2 21:15,0.130087929,0,0,0,19.096908,0,0,0
2003/2/2 21:30,0.13041,0,0.01239703,0,19.144188,0,1.819884,0
2003/2/2 21:45,0.130248965,0,0.009498965,0,19.120548,0,1.394448,0
2003/2/2 22:00,0.13041,0,0.000483025,0,19.144188,0,0.070908,0
2003/2/2 22:15,0.13041,0,0.015938992,0,19.144188,0,2.339844,0
2003/2/2 22:30,0.13041,0,0,0,19.144188,0,0,0
2003/2/2 22:45,0.13041,0,0.064238992,0,19.144188,0,9.430284,0
2003/2/2 23:00,0.13041,0,0.338905014,0,19.144188,0,49.751256,0
2003/2/2 23:15,0.130571035,0,0.000321989,0,19.167828,0,0.047268,0
2003/2/2 23:30,0.13041,0,0,0,19.144188,0,0,0
2003/2/2 23:45,0.130571035,0,0,0,19.167828,0,0,0
2003/2/3 0:00,0.130571035,0,0,0,19.167828,0,0,0
2003/2/3 0:15,0.130732071,0,0,0,19.191468,0,0,0
2003/2/3 0:30,0.130732071,0,0,0,19.191468,0,0,0
2003/2/3 0:45,0.130571035,0,0,0,19.167828,0,0,0
2003/2/3 1:00,0.130732071,0,0,0,19.191468,0,0,0
2003/2/3 1:15,0.130571035,0,0.038156975,0,19.167828,0,5.601444,0
2003/2/3 1:30,0.13041,0,0,0,19.144188,0,0,0
2003/2/3 1:45,0.097083025,0,0,0,14.251788,0,0,0
2003/2/3 2:00,0.130732071,0,0,0,19.191468,0,0,0
2003/2/3 2:15,0.130571035,0,0,0,19.167828,0,0,0
2003/2/3 2:30,0.130571035,0,0,0,19.167828,0,0,0
2003/2/3 2:45,0.108031063,0,0,0,15.85896,0,0,0
2003/2/3 3:00,0.130732071,0,0,0,19.191468,0,0,0
2003/2/3 3:15,0.130571035,0,0,0,19.167828,0,0,0
2003/2/3 3:30,0.13041,0,0,0,19.144188,0,0,0
2003/2/3 3:45,0.130571035,0,0.021895995,0,19.167828,0,3.214332,0
2003/2/3 4:00,0.130571035,0,0,0,19.167828,0,0,0
2003/2/3 4:15,0.13041,0,0,0,19.144188,0,0,0
2003/2/3 4:30,0.130571035,0,0,0,19.167828,0,0,0
2003/2/3 4:45,0.130732071,0,0,0,19.191468,0,0,0
2003/2/3 5:00,0.130893025,0,0,0,19.215096,0,0,0
2003/2/3 5:15,0.130732071,0,0,0,19.191468,0,0,0
2003/2/3 5:30,0.130893106,0,0,0,19.215108,0,0,0
2003/2/3 5:45,0.130732071,0,0,0,19.191468,0,0,0
2003/2/3 6:00,0.130571035,0,0.032361008,0,19.167828,0,4.750596,0
2003/2/3 6:15,0.130571035,0,0,0,19.167828,0,0,0
2003/2/3 6:30,0.13041,0,0,0,19.144188,0,0,0
2003/2/3 6:45,0.13041,0,0,0,19.144188,0,0,0
2003/2/3 7:00,0.130571035,0,0.40362703,0,19.167828,0,59.252448,0
2003/2/3 7:15,0.130571035,0,0.209300027,0,19.167828,0,30.725244,0
2003/2/3 7:30,0.130571035,0,0,0,19.167828,0,0,0
2003/2/3 7:45,0.130571035,0,0,0,19.167828,0,0,0
2003/2/3 8:00,0.13041,0,0,0,19.144188,0,0,0
2003/2/3 8:15,0.13041,0,0,0,19.144188,0,0,0
2003/2/3 8:30,0.130248965,0,0,0,19.120548,0,0,0
2003/2/3 8:45,0.130570954,0,0.034293025,0,19.167816,0,5.034216,0
2003/2/3 9:00,0.129926894,0,0,0,19.073268,0,0,0
2003/2/3 9:15,0.129282997,0,0.016100027,0,18.978744,0,2.363484,0
2003/2/3 9:30,0.129444033,0,0,0,19.002384,0,0,0
2003/2/3 9:45,0.080499973,0,0,0,11.817396,0,0,0
2003/2/3 10:00,0.07035703,0,0.028496975,0,10.328412,0,4.183356,0
2003/2/3 10:15,0.104327984,0,0.016744005,0,15.315348,0,2.45802,0
2003/2/3 10:30,0.060857984,0,0,0,8.933952,0,0,0
2003/2/3 10:45,0.091608965,0,0,0,13.448196,0,0,0
2003/2/3 11:00,0.073416049,0,0,0,10.777476,0,0,0
2003/2/3 11:15,0.092735967,0,0,0,13.61364,0,0,0
2003/2/3 11:30,0.064239074,0,0,0,9.430296,0,0,0
2003/2/3 11:45,0.065044005,0,0,0,9.54846,0,0,0
2003/2/3 12:00,0.111572943,0,0,0,16.378908,0,0,0
2003/2/3 12:15,0.08211,0,0,0,12.053748,0,0,0
2003/2/3 12:30,0.061180054,0,0,0,8.981232,0,0,0
2003/2/3 12:45,0.06762,0,0,0,9.926616,0,0,0
2003/2/3 13:00,0.10352297,0,0,0,15.197172,0,0,0
2003/2/3 13:15,0.079212016,0,0,0,11.628324,0,0,0
2003/2/3 13:30,0.058443025,0,0,0,8.579436,0,0,0
2003/2/3 13:45,0.099175913,0,0.013684986,0,14.559024,0,2.008956,0
2003/2/3 14:00,0.089515995,0,0,0,13.140948,0,0,0
2003/2/3 14:15,0.152305995,0,0,0,22.35852,0,0,0
2003/2/3 14:30,0.12493594,0,0,0,18.340596,0,0,0
2003/2/3 14:45,0.129282997,0,0,0,18.978744,0,0,0
2003/2/3 15:00,0.129282997,0,0,0,18.978744,0,0,0
2003/2/3 15:15,0.129121962,0,0,0,18.955104,0,0,0
2003/2/3 15:30,0.129444033,0,0,0,19.002384,0,0,0
2003/2/3 15:45,0.129282997,0,0,0,18.978744,0,0,0
2003/2/3 16:00,0.129282997,0,0,0,18.978744,0,0,0
2003/2/3 16:15,0.129282997,0,0,0,18.978744,0,0,0
2003/2/3 16:30,0.129282997,0,0.009499046,0,18.978744,0,1.39446,0
2003/2/3 16:45,0.129444033,0,0,0,19.002384,0,0,0
2003/2/3 17:00,0.129282997,0,0,0,18.978744,0,0,0
2003/2/3 17:15,0.129444033,0,0,0,19.002384,0,0,0
2003/2/3 17:30,0.129444033,0,0,0,19.002384,0,0,0
2003/2/3 17:45,0.129604986,0,0,0,19.026012,0,0,0
2003/2/3 18:00,0.129604986,0,0.005957003,0,19.026012,0,0.874488,0
2003/2/3 18:15,0.129444033,0,0,0,19.002384,0,0,0
2003/2/3 18:30,0.129604986,0,0.005957003,0,19.026012,0,0.874488,0
2003/2/3 18:45,0.129604986,0,0,0,19.026012,0,0,0
2003/2/3 19:00,0.129444033,0,0.005957003,0,19.002384,0,0.874488,0
2003/2/3 19:15,0.129443951,0,0.005957003,0,19.002372,0,0.874488,0
2003/2/3 19:30,0.129282997,0,0.009821035,0,18.978744,0,1.441728,0
2003/2/3 19:45,0.128960926,0,0,0,18.931464,0,0,0
2003/2/3 20:00,0.128639019,0,0.307188065,0,18.884208,0,45.095208,0
2003/2/3 20:15,0.128799973,0,0.782620954,0,18.907836,0,114.888756,0
2003/2/3 20:30,0.129121962,0,0.086779046,0,18.955104,0,12.739164,0
2003/2/3 20:45,0.129121962,0,0.086457057,0,18.955104,0,12.691896,0
2003/2/3 21:00,0.129121962,0,0.065205041,0,18.955104,0,9.5721,0
2003/2/3 21:15,0.129282997,0,0.064560981,0,18.978744,0,9.477552,0
2003/2/3 21:30,0.129444033,0,0.04347,0,19.002384,0,6.381396,0
2003/2/3 21:45,0.12976594,0,0,0,19.04964,0,0,0
2003/2/3 22:00,0.12976594,0,0.175811935,0,19.04964,0,25.809192,0
2003/2/3 22:15,0.12976594,0,0.064722016,0,19.04964,0,9.501192,0
2003/2/3 22:30,0.12976594,0,0.043630954,0,19.04964,0,6.405024,0
2003/2/3 22:45,0.129926894,0,0.094989973,0,19.073268,0,13.944528,0
2003/2/3 23:00,0.12976594,0,0,0,19.04964,0,0,0
2003/2/3 23:15,0.129926894,0,0.085169019,0,19.073268,0,12.502812,0
2003/2/3 23:30,0.129926894,0,0.000483025,0,19.073268,0,0.070908,0
2003/2/3 23:45,0.12976594,0,0.325058992,0,19.04964,0,47.71866,0
2003/2/4 0:00,0.12976594,0,0.163253951,0,19.04964,0,23.96568,0
2003/2/4 0:15,0.129444033,0,0,0,19.002384,0,0,0
2003/2/4 0:30,0.129282997,0,0,0,18.978744,0,0,0
2003/2/4 0:45,0.129444033,0,0.037674033,0,19.002384,0,5.530548,0
2003/2/4 1:00,0.129604986,0,0.124291962,0,19.026012,0,18.24606,0
2003/2/4 1:15,0.129604986,0,0,0,19.026012,0,0,0
2003/2/4 1:30,0.129604986,0,0,0,19.026012,0,0,0
2003/2/4 1:45,0.130087929,0,0,0,19.096908,0,0,0
2003/2/4 2:00,0.129926894,0,0,0,19.073268,0,0,0
2003/2/4 2:15,0.105937929,0,0,0,15.551688,0,0,0
2003/2/4 2:30,0.130571035,0,0,0,19.167828,0,0,0
2003/2/4 2:45,0.130248965,0,0,0,19.120548,0,0,0
2003/2/4 3:00,0.130087929,0,0,0,19.096908,0,0,0
2003/2/4 3:15,0.11253891,0,0,0,16.520712,0,0,0
2003/2/4 3:30,0.112699946,0,0,0,16.544352,0,0,0
2003/2/4 3:45,0.106581989,0,0,0,15.646236,0,0,0
2003/2/4 4:00,0.129926975,0,0,0,19.07328,0,0,0
2003/2/4 4:15,0.129926894,0,0,0,19.073268,0,0,0
2003/2/4 4:30,0.130087929,0,0,0,19.096908,0,0,0
2003/2/4 4:45,0.129926894,0,0,0,19.073268,0,0,0
2003/2/4 5:00,0.129926894,0,0.012557984,0,19.073268,0,1.843512,0
2003/2/4 5:15,0.112538992,0,0,0,16.520724,0,0,0
2003/2/4 5:30,0.130248965,0,0,0,19.120548,0,0,0
2003/2/4 5:45,0.13041,0,0,0,19.144188,0,0,0
2003/2/4 6:00,0.13041,0,0,0,19.144188,0,0,0
2003/2/4 6:15,0.13041,0,0,0,19.144188,0,0,0
2003/2/4 6:30,0.104166948,0,0,0,15.291708,0,0,0
2003/2/4 6:45,0.130248965,0,0,0,19.120548,0,0,0
2003/2/4 7:00,0.129926894,0,0,0,19.073268,0,0,0
2003/2/4 7:15,0.129926975,0,0.0483,0,19.07328,0,7.09044,0
2003/2/4 7:30,0.130248965,0,0.025277003,0,19.120548,0,3.710664,0
2003/2/4 7:45,0.129926894,0,0.009177057,0,19.073268,0,1.347192,0
2003/2/4 8:00,0.129926894,0,0.005313025,0,19.073268,0,0.779952,0
2003/2/4 8:15,0.129926894,0,0.013684986,0,19.073268,0,2.008956,0
2003/2/4 8:30,0.129604986,0,0.020125014,0,19.026012,0,2.954352,0
2003/2/4 8:45,0.129604986,0,0,0,19.026012,0,0,0
2003/2/4 9:00,0.129926894,0,0.00966,0,19.073268,0,1.418088,0
2003/2/4 9:15,0.129926894,0,0,0,19.073268,0,0,0
2003/2/4 9:30,0.129926894,0,0,0,19.073268,0,0,0
2003/2/4 9:45,0.129444033,0,0,0,19.002384,0,0,0
2003/2/4 10:00,0.129444033,0,0,0,19.002384,0,0,0
2003/2/4 10:15,0.129444033,0,0,0,19.002384,0,0,0
2003/2/4 10:30,0.128960926,0,0.008532997,0,18.931464,0,1.252644,0
2003/2/4 10:45,0.129121962,0,0,0,18.955104,0,0,0
2003/2/4 11:00,0.129121962,0,0,0,18.955104,0,0,0
2003/2/4 11:15,0.111250954,0,0,0,16.33164,0,0,0
2003/2/4 11:30,0.121393978,0,0.032682997,0,17.820636,0,4.797864,0
2003/2/4 11:45,0.128960926,0,0.03381,0,18.931464,0,4.963308,0
2003/2/4 12:00,0.128799973,0,0,0,18.907836,0,0,0
2003/2/4 12:15,0.128478065,0,0,0,18.86058,0,0,0
2003/2/4 12:30,0.128639019,0,0,0,18.884208,0,0,0
2003/2/4 12:45,0.128478065,0,0,0,18.86058,0,0,0
2003/2/4 13:00,0.128639019,0,0,0,18.884208,0,0,0
2003/2/4 13:15,0.128799973,0,0,0,18.907836,0,0,0
2003/2/4 13:30,0.128478065,0,0,0,18.86058,0,0,0
2003/2/4 13:45,0.128639019,0,0.014168011,0,18.884208,0,2.079864,0
2003/2/4 14:00,0.128478065,0,0,0,18.86058,0,0,0
2003/2/4 14:15,0.12831703,0,0,0,18.83694,0,0,0
2003/2/4 14:30,0.128799973,0,0,0,18.907836,0,0,0
2003/2/4 14:45,0.128639019,0,0,0,18.884208,0,0,0
2003/2/4 15:00,0.128960926,0,0.067780954,0,18.931464,0,9.950244,0
2003/2/4 15:15,0.105293951,0,0,0,15.457152,0,0,0
2003/2/4 15:30,0.060858065,0,0,0,8.933964,0,0,0
2003/2/4 15:45,0.128960926,0,0,0,18.931464,0,0,0
2003/2/4 16:00,0.128639019,0,0,0,18.884208,0,0,0
2003/2/4 16:15,0.128478065,0,0,0,18.86058,0,0,0
2003/2/4 16:30,0.128639019,0,0,0,18.884208,0,0,0
2003/2/4 16:45,0.128799973,0,0,0,18.907836,0,0,0
2003/2/4 17:00,0.128961008,0,0,0,18.931476,0,0,0
2003/2/4 17:15,0.128960926,0,0,0,18.931464,0,0,0
2003/2/4 17:30,0.129121962,0,0,0,18.955104,0,0,0
2003/2/4 17:45,0.129282997,0,0,0,18.978744,0,0,0
2003/2/4 18:00,0.128960926,0,0.015617003,0,18.931464,0,2.292576,0
2003/2/4 18:15,0.128799973,0,0,0,18.907836,0,0,0
2003/2/4 18:30,0.129604986,0,0,0,19.026012,0,0,0
2003/2/4 18:45,0.12976594,0,0,0,19.04964,0,0,0
2003/2/4 19:00,0.129604986,0,0,0,19.026012,0,0,0
2003/2/4 19:15,0.12976594,0,0,0,19.04964,0,0,0
2003/2/4 19:30,0.129604986,0,0,0,19.026012,0,0,0
2003/2/4 19:45,0.129604986,0,0.215095995,0,19.026012,0,31.576092,0
2003/2/4 20:00,0.12976594,0,0.924623052,0,19.04964,0,135.734664,0
2003/2/4 20:15,0.129604986,0,0.047816975,0,19.026012,0,7.019532,0
2003/2/4 20:30,0.129121962,0,0.036708065,0,18.955104,0,5.388744,0
2003/2/4 20:45,0.129604986,0,0,0,19.026012,0,0,0
2003/2/4 21:00,0.129604986,0,0.009981989,0,19.026012,0,1.465356,0
2003/2/4 21:15,0.12976594,0,0,0,19.04964,0,0,0
2003/2/4 21:30,0.125258011,0,0.006762016,0,18.387876,0,0.992664,0
2003/2/4 21:45,0.106099046,0,0,0,15.57534,0,0,0
2003/2/4 22:00,0.084525041,0,0.359029946,0,12.408276,0,52.705596,0
2003/2/4 22:15,0.130571035,0,0.021735041,0,19.167828,0,3.190704,0
2003/2/4 22:30,0.130087929,0,0.006118038,0,19.096908,0,0.898128,0
2003/2/4 22:45,0.130087929,0,0,0,19.096908,0,0,0
2003/2/4 23:00,0.092091989,0,0.087423025,0,13.519104,0,12.8337,0
2003/2/4 23:15,0.09177,0,0.27740297,0,13.471836,0,40.722756,0
2003/2/4 23:30,0.107387003,0,0.085330054,0,15.764412,0,12.526452,0
2003/2/4 23:45,0.129443951,0,0,0,19.002372,0,0,0
2003/2/5 0:00,0.129282997,0,0,0,18.978744,0,0,0
2003/2/5 0:15,0.12976594,0,0.443876975,0,19.04964,0,65.16114,0
2003/2/5 0:30,0.106420954,0,0.000321989,0,15.622596,0,0.047268,0
2003/2/5 0:45,0.105455068,0,0,0,15.480804,0,0,0
2003/2/5 1:00,0.113022016,0,0,0,16.591632,0,0,0
2003/2/5 1:15,0.112700027,0,0,0,16.544364,0,0,0
2003/2/5 1:30,0.13041,0,0,0,19.144188,0,0,0
2003/2/5 1:45,0.13041,0,0,0,19.144188,0,0,0
2003/2/5 2:00,0.130248965,0,0,0,19.120548,0,0,0
2003/2/5 2:15,0.13041,0,0,0,19.144188,0,0,0
2003/2/5 2:30,0.130248965,0,0,0,19.120548,0,0,0
2003/2/5 2:45,0.13041,0,0,0,19.144188,0,0,0
2003/2/5 3:00,0.130571035,0,0.015455967,0,19.167828,0,2.268936,0
2003/2/5 3:15,0.13041,0,0.000483025,0,19.144188,0,0.070908,0
2003/2/5 3:30,0.13041,0,0,0,19.144188,0,0,0
2003/2/5 3:45,0.13041,0,0,0,19.144188,0,0,0
2003/2/5 4:00,0.130732071,0,0,0,19.191468,0,0,0
2003/2/5 4:15,0.130732071,0,0,0,19.191468,0,0,0
2003/2/5 4:30,0.130571035,0,0,0,19.167828,0,0,0
2003/2/5 4:45,0.130571035,0,0,0,19.167828,0,0,0
2003/2/5 5:00,0.130571035,0,0,0,19.167828,0,0,0
2003/2/5 5:15,0.130571035,0,0,0,19.167828,0,0,0
2003/2/5 5:30,0.13041,0,0.015938992,0,19.144188,0,2.339844,0
2003/2/5 5:45,0.130571035,0,0,0,19.167828,0,0,0
2003/2/5 6:00,0.130732071,0,0,0,19.191468,0,0,0
2003/2/5 6:15,0.130571035,0,0.015938992,0,19.167828,0,2.339844,0
2003/2/5 6:30,0.130571035,0,0,0,19.167828,0,0,0
2003/2/5 6:45,0.130571035,0,0.678936948,0,19.167828,0,99.667944,0
2003/2/5 7:00,0.130571035,0,0.014651035,0,19.167828,0,2.150772,0
2003/2/5 7:15,0.130571035,0,0,0,19.167828,0,0,0
2003/2/5 7:30,0.130732071,0,0,0,19.191468,0,0,0
2003/2/5 7:45,0.130571035,0,0.01239703,0,19.167828,0,1.819884,0
2003/2/5 8:00,0.130571035,0,0,0,19.167828,0,0,0
2003/2/5 8:15,0.130248965,0,0,0,19.120548,0,0,0
2003/2/5 8:30,0.130248965,0,0.022861962,0,19.120548,0,3.356136,0
2003/2/5 8:45,0.12075,0,0.019963978,0,17.7261,0,2.930712,0
2003/2/5 9:00,0.106582071,0,0,0,15.646248,0,0,0
2003/2/5 9:15,0.093863052,0,0,0,13.779096,0,0,0
2003/2/5 9:30,0.057798965,0,0,0,8.484888,0,0,0
2003/2/5 9:45,0.12767297,0,0,0,18.742392,0,0,0
2003/2/5 10:00,0.069069074,0,0,0,10.13934,0,0,0
2003/2/5 10:15,0.066492997,0,0,0,9.761172,0,0,0
2003/2/5 10:30,0.067942071,0,0,0,9.973896,0,0,0
2003/2/5 10:45,0.093540981,0,0,0,13.731816,0,0,0
2003/2/5 11:00,0.085329973,0,0,0,12.52644,0,0,0
2003/2/5 11:15,0.112860981,0,0,0,16.567992,0,0,0
2003/2/5 11:30,0.067780954,0,0.014328965,0,9.950244,0,2.103492,0
2003/2/5 11:45,0.067458965,0,0.000643978,0,9.902976,0,0.094536,0
2003/2/5 12:00,0.10416703,0,0.006118038,0,15.29172,0,0.898128,0
2003/2/5 12:15,0.093218992,0,0.015938992,0,13.684548,0,2.339844,0
2003/2/5 12:30,0.066814986,0,0,0,9.80844,0,0,0
2003/2/5 12:45,0.066653951,0,0,0,9.7848,0,0,0
2003/2/5 13:00,0.066654033,0,0,0,9.784812,0,0,0
2003/2/5 13:15,0.071484033,0,0,0,10.493856,0,0,0
2003/2/5 13:30,0.064722016,0,0.015133978,0,9.501192,0,2.221668,0
2003/2/5 13:45,0.062468011,0,0,0,9.170304,0,0,0
2003/2/5 14:00,0.061501962,0,0,0,9.028488,0,0,0
2003/2/5 14:15,0.060536076,0,0.015617003,0,8.886696,0,2.292576,0
2003/2/5 14:30,0.078245967,0,0.000321989,0,11.486508,0,0.047268,0